CW3518 Weather Reports


time (UTC)temp
F
wind
direction
speed
knots
gust
knots
rain 1hr
in
rain 24hr
in
rain mn
in
humidity
%
barometer
mb
20260905073511 82 231 5.2 6.1 0.00 0.03 0.00 69 1013.9
20260905073010 82 223 6.1 7.8 0.00 0.03 0.00 68 1013.9
20260905072510 82 224 5.2 7.8 0.00 0.03 0.00 68 1013.9
20260905071511 83 214 6.1 7.8 0.00 0.03 0.00 66 1013.9
20260905070510 83 199 5.2 6.1 0.00 0.03 0.00 65 1013.9
20260905070010 84 203 5.2 6.1 0.00 0.03 0.00 65 1014.0
20260905065510 84 197 3.5 6.1 0.00 0.03 0.00 64 1014.0
20260905065010 84 185 4.3 6.1 0.00 0.03 0.00 64 1014.0
20260905064510 84 200 5.2 5.2 0.00 0.03 0.00 63 1014.0
20260905064010 84 185 3.5 5.2 0.00 0.03 0.00 63 1014.0
20260905063010 85 186 5.2 6.1 0.00 0.03 0.00 62 1014.0
20260905062510 85 194 4.3 7.0 0.00 0.03 0.00 62 1014.0
20260905061009 85 195 7.0 9.6 0.00 0.03 0.00 60 1013.9
20260905060009 86 170 7.0 9.6 0.00 0.03 0.00 60 1013.7
20260905055509 86 191 6.1 8.7 0.00 0.03 0.00 60 1013.7
20260905055009 86 184 6.1 8.7 0.00 0.03 0.00 60 1013.7
20260905054509 86 204 7.8 8.7 0.00 0.03 0.00 60 1013.7
20260905054010 86 194 6.1 8.7 0.00 0.03 0.00 60 1013.7
20260905053509 86 189 7.0 7.8 0.00 0.03 0.00 60 1013.7
20260905053009 86 190 6.1 7.8 0.00 0.03 0.00 60 1013.7
20260905052509 86 197 6.1 7.8 0.00 0.03 0.00 59 1013.7
20260905052009 86 178 4.3 7.8 0.00 0.03 0.00 59 1013.6
20260905051509 86 177 6.1 7.8 0.00 0.03 0.00 59 1013.5
20260905051010 86 181 6.1 7.0 0.00 0.03 0.00 58 1013.5
20260905050508 86 189 5.2 7.0 0.00 0.03 0.00 58 1013.6
20260905050008 86 180 6.1 7.8 0.00 0.03 0.00 57 1013.5
20260905045008 87 164 6.1 10.4 0.00 0.03 0.03 56 1013.5
20260905044509 87 160 7.8 10.4 0.00 0.03 0.03 56 1013.5
20260905044008 87 162 8.7 9.6 0.00 0.03 0.03 55 1013.5
20260905043509 87 163 8.7 9.6 0.00 0.03 0.03 55 1013.5
20260905043008 87 159 8.7 10.4 0.00 0.03 0.03 54 1013.5
20260905041509 87 142 6.1 7.8 0.00 0.03 0.03 52 1013.5
20260905041008 88 143 7.0 8.7 0.00 0.03 0.03 52 1013.4
20260905040008 88 140 7.8 9.6 0.00 0.03 0.03 52 1013.4
20260905035508 88 143 7.8 9.6 0.00 0.03 0.03 52 1013.4
20260905035008 88 143 7.8 7.8 0.00 0.03 0.03 52 1013.5
20260905034008 88 138 6.1 10.4 0.00 0.03 0.03 51 1013.4
20260905033509 89 137 8.7 9.6 0.00 0.03 0.03 51 1013.3
20260905033008 89 141 7.0 9.6 0.00 0.03 0.03 51 1013.3
20260905032009 89 146 7.0 11.3 0.00 0.03 0.03 51 1013.3
20260905031507 89 131 7.0 11.3 0.00 0.03 0.03 51 1013.3
20260905031007 89 140 7.8 11.3 0.00 0.03 0.03 51 1013.3
20260905030007 89 141 8.7 9.6 0.00 0.03 0.03 51 1013.2
20260905024007 89 135 7.8 10.4 0.00 0.03 0.03 52 1013.0
20260905023507 89 133 9.6 11.3 0.00 0.03 0.03 51 1012.9
20260905023007 90 134 7.8 11.3 0.00 0.03 0.03 51 1012.9
20260905022507 90 140 9.6 11.3 0.00 0.03 0.03 51 1012.8
20260905020506 90 138 11.3 13.0 0.00 0.03 0.03 51 1012.5
20260905020006 90 135 8.7 13.0 0.00 0.03 0.03 51 1012.5
20260905015507 90 128 6.1 7.8 0.00 0.03 0.03 52 1012.5
20260905015007 90 117 6.1 8.7 0.00 0.03 0.03 52 1012.4
20260905014506 90 123 6.1 8.7 0.00 0.03 0.03 52 1012.3
20260905014006 91 115 6.1 9.6 0.00 0.03 0.03 51 1012.2
20260905013506 91 121 7.8 9.6 0.00 0.03 0.03 51 1012.2
20260905013006 91 114 7.8 8.7 0.00 0.03 0.03 50 1012.0
20260905012506 91 113 7.8 8.7 0.00 0.03 0.03 49 1012.0
20260905012006 91 112 7.0 8.7 0.00 0.03 0.03 47 1012.0
20260905011006 92 121 6.1 7.8 0.00 0.03 0.03 46 1011.9
20260905010006 93 128 7.8 7.8 0.00 0.03 0.03 45 1011.8
20260905004506 93 145 6.1 8.7 0.00 0.03 0.03 43 1011.7
20260905003506 94 140 6.1 7.8 0.00 0.03 0.03 42 1011.5
20260905003006 95 155 5.2 10.4 0.00 0.03 0.03 42 1011.4
20260905002505 95 160 5.2 10.4 0.00 0.03 0.03 42 1011.3
20260905002005 95 168 7.0 9.6 0.00 0.03 0.03 41 1011.2
20260905001505 95 158 6.1 9.6 0.00 0.03 0.03 41 1011.2
20260905001005 96 166 9.6 11.3 0.00 0.03 0.03 41 1011.2
20260905000505 96 159 7.8 13.0 0.00 0.03 0.03 40 1011.2
20260905000006 96 155 13.0 13.0 0.00 0.03 0.03 40 1011.2
20260904235506 96 149 12.2 13.0 0.00 0.03 0.03 40 1011.2
20260904235005 96 164 10.4 13.0 0.00 0.03 0.03 40 1011.2
20260904234506 96 165 8.7 14.8 0.00 0.03 0.03 40 1011.2
20260904234005 96 152 7.0 14.8 0.00 0.03 0.03 40 1011.2
20260904233505 96 138 12.2 12.2 0.00 0.03 0.03 41 1011.2
20260904233005 96 127 10.4 13.0 0.00 0.03 0.03 40 1011.1
20260904232505 97 138 13.0 13.9 0.00 0.03 0.03 40 1011.1
20260904232006 97 168 7.8 13.9 0.00 0.03 0.03 40 1011.1
20260904231505 97 156 11.3 13.0 0.00 0.03 0.03 40 1011.1
20260904231005 97 171 6.1 10.4 0.00 0.03 0.03 40 1011.2
20260904230505 97 142 7.0 13.0 0.00 0.03 0.03 40 1011.2
20260904230005 96 172 7.0 17.4 0.00 0.03 0.03 40 1011.2
20260904225505 97 161 9.6 17.4 0.00 0.03 0.03 40 1011.2
20260904225005 97 111 11.3 15.6 0.00 0.03 0.03 40 1011.2
20260904224505 97 168 7.0 15.6 0.00 0.03 0.03 40 1011.3
20260904224005 97 144 6.1 11.3 0.00 0.03 0.03 40 1011.3
20260904223505 96 121 11.3 11.3 0.00 0.03 0.03 40 1011.3
20260904223035 97 150 8.7 13.0 0.00 0.03 0.03 39 1011.4
20260904222505 97 159 13.0 16.5 0.00 0.03 0.03 39 1011.4
20260904222006 97 138 12.2 16.5 0.00 0.03 0.03 39 1011.4
20260904221006 97 205 13.9 14.8 0.00 0.03 0.03 40 1011.4
20260904220505 97 183 11.3 13.0 0.00 0.03 0.03 40 1011.4
20260904220005 97 197 7.0 13.0 0.00 0.03 0.03 41 1011.5
20260904215505 97 190 9.6 13.0 0.00 0.03 0.03 41 1011.5
20260904215005 97 143 7.8 13.9 0.00 0.03 0.03 41 1011.5
20260904214504 97 176 4.3 15.6 0.00 0.03 0.03 42 1011.6
20260904214005 96 141 10.4 15.6 0.00 0.03 0.03 42 1011.5
20260904213504 96 123 11.3 13.9 0.00 0.03 0.03 42 1011.6
20260904213004 96 153 5.2 16.5 0.00 0.03 0.03 43 1011.8
20260904212504 96 165 14.8 16.5 0.00 0.03 0.03 42 1011.7
20260904212004 97 211 8.7 14.8 0.00 0.03 0.03 42 1011.8
20260904211004 96 201 13.0 14.8 0.00 0.03 0.03 42 1011.9
20260904210504 96 170 7.0 13.9 0.00 0.03 0.03 41 1012.0
20260904205504 96 164 11.3 13.0 0.00 0.03 0.03 40 1012.2
20260904204504 96 145 12.2 13.9 0.00 0.03 0.03 40 1012.3
20260904203504 96 165 7.8 13.0 0.00 0.03 0.03 40 1012.4
20260904203004 96 147 7.0 13.9 0.00 0.03 0.03 41 1012.4
20260904202504 96 178 10.4 13.9 0.00 0.03 0.03 42 1012.5
20260904202004 96 169 13.0 15.6 0.00 0.03 0.03 41 1012.5
20260904201504 96 134 13.0 15.6 0.00 0.03 0.03 41 1012.6
20260904201004 96 165 10.4 15.6 0.00 0.03 0.03 42 1012.6
20260904200504 96 168 7.0 13.9 0.00 0.03 0.03 43 1012.8
20260904195004 95 168 10.4 14.8 0.00 0.03 0.03 43 1012.9
20260904194003 96 168 9.6 13.9 0.00 0.03 0.03 43 1013.0
20260904193503 95 216 7.8 16.5 0.00 0.03 0.03 45 1013.1
20260904193003 95 175 7.0 16.5 0.00 0.03 0.03 44 1013.1
20260904192503 94 206 11.3 16.5 0.00 0.03 0.03 44 1013.1
20260904192003 94 215 10.4 17.4 0.00 0.03 0.03 44 1013.2
20260904191503 94 201 7.8 17.4 0.00 0.03 0.03 43 1013.2
20260904191003 95 209 16.5 16.5 0.00 0.03 0.03 42 1013.3
20260904190503 94 132 15.6 18.2 0.00 0.03 0.03 42 1013.4
20260904190003 93 194 6.1 18.2 0.00 0.03 0.03 44 1013.5
20260904184503 94 150 11.3 17.4 0.00 0.03 0.03 45 1013.6
20260904184002 93 155 16.5 17.4 0.00 0.03 0.03 45 1013.6
20260904182503 93 145 14.8 15.6 0.00 0.03 0.03 41 1013.9
20260904182002 92 198 8.7 15.6 0.00 0.03 0.03 41 1014.1
20260904181502 92 223 13.9 16.5 0.00 0.03 0.03 42 1014.1
20260904181002 91 201 13.9 16.5 0.00 0.03 0.03 42 1014.2
20260904180502 91 197 12.2 16.5 0.00 0.03 0.03 42 1014.2
20260904175502 91 211 11.3 16.5 0.00 0.03 0.03 47 1014.3
20260904175002 91 168 11.3 16.5 0.00 0.03 0.03 45 1014.3
20260904174532 92 188 11.3 16.5 0.00 0.03 0.03 44 1014.3
20260904174003 91 161 10.4 13.9 0.00 0.03 0.03 50 1014.3
20260904173502 91 201 12.2 14.8 0.00 0.03 0.03 51 1014.4
20260904173002 91 163 12.2 14.8 0.00 0.03 0.03 50 1014.5
20260904172002 89 191 6.1 13.9 0.00 0.03 0.03 56 1014.8
20260904171502 89 203 10.4 14.8 0.00 0.03 0.03 57 1014.7
20260904171001 88 223 13.9 14.8 0.00 0.03 0.03 57 1014.8
20260904165501 88 175 9.6 12.2 0.00 0.03 0.03 55 1014.9
20260904165001 88 213 11.3 13.0 0.00 0.03 0.03 55 1015.0
20260904164502 87 185 7.0 15.6 0.00 0.03 0.03 56 1015.1
20260904164002 87 215 13.9 15.6 0.00 0.03 0.03 55 1015.1
20260904163502 86 204 10.4 13.0 0.00 0.03 0.03 57 1015.1
20260904162501 86 204 11.3 14.8 0.00 0.03 0.03 58 1015.1
20260904162001 86 215 10.4 14.8 0.00 0.03 0.03 62 1015.1
20260904161001 85 195 10.4 12.2 0.00 0.03 0.03 66 1015.2
20260904160001 84 209 11.3 12.2 0.01 0.03 0.03 66 1015.2
20260904155501 84 202 9.6 12.2 0.01 0.03 0.03 67 1015.2
20260904155001 84 217 7.0 12.2 0.01 0.03 0.03 68 1015.1
20260904154501 84 198 9.6 12.2 0.02 0.03 0.03 68 1015.2
20260904154001 84 196 10.4 12.2 0.03 0.03 0.03 69 1015.1
20260904153001 84 158 6.1 11.3 0.03 0.03 0.03 71 1015.1
20260904152501 84 194 8.7 11.3 0.03 0.03 0.03 71 1015.1
20260904152001 84 192 7.8 15.6 0.03 0.03 0.03 71 1015.0
20260904151501 83 195 12.2 15.6 0.03 0.03 0.03 69 1015.0
20260904145501 81 170 7.0 10.4 0.02 0.02 0.02 81 1015.0
20260904144501 82 210 5.2 7.8 0.01 0.01 0.01 80 1015.0
20260904143500 82 184 5.2 9.6 0.00 0.00 0.00 80 1014.9
20260904143000 82 195 7.8 10.4 0.00 0.00 0.00 78 1014.9
20260904142530 82 178 8.7 10.4 0.00 0.00 0.00 80 1014.8
20260904142000 81 177 7.0 10.4 0.00 0.00 0.00 82 1014.9
20260904141500 81 160 7.0 10.4 0.00 0.00 0.00 83 1014.8
20260904141001 80 163 6.1 10.4 0.00 0.00 0.00 84 1014.8
20260904140500 80 144 7.8 10.4 0.00 0.00 0.00 85 1014.8
20260904140000 80 169 8.7 11.3 0.00 0.00 0.00 85 1014.8
20260904135500 80 0 0.0 11.3 0.00 0.00 0.00 86 1014.8
20260904135000 80 131 8.7 10.4 0.00 0.00 0.00 87 1014.7
20260904134502 80 147 7.0 11.3 0.00 0.00 0.00 88 1014.7
20260904134000 79 0 0.0 11.3 0.00 0.00 0.00 88 1014.6
20260904133501 79 0 0.0 11.3 0.00 0.00 0.00 88 1014.6
20260904132001 79 156 4.3 9.6 0.00 0.00 0.00 89 1014.4
20260904131500 79 146 7.8 8.7 0.00 0.00 0.00 89 1014.4
20260904130501 79 137 5.2 8.7 0.00 0.00 0.00 89 1014.4
20260904125459 78 145 6.1 7.8 0.00 0.00 0.00 89 1014.3
20260904124959 78 146 6.1 9.6 0.00 0.00 0.00 89 1014.2
20260904123959 78 157 7.8 8.7 0.00 0.00 0.00 89 1014.1
20260904123459 78 167 5.2 9.6 0.00 0.00 0.00 89 1014.1
20260904122959 78 138 6.1 9.6 0.00 0.00 0.00 89 1014.1
20260904122459 78 116 5.2 8.7 0.00 0.00 0.00 89 1014.1
20260904121959 78 132 6.1 7.8 0.00 0.00 0.00 89 1014.0
20260904120959 78 142 7.0 7.0 0.00 0.00 0.00 90 1013.9
20260904120459 78 143 6.1 8.7 0.00 0.00 0.00 90 1013.7
20260904115959 78 149 6.1 8.7 0.00 0.00 0.00 90 1013.7
20260904115459 78 146 7.0 8.7 0.00 0.00 0.00 90 1013.6
20260904114959 78 127 6.1 7.8 0.00 0.00 0.00 90 1013.7
20260904114529 78 136 7.0 7.8 0.00 0.00 0.00 90 1013.7
20260904113959 78 131 6.1 7.8 0.00 0.00 0.00 89 1013.7
20260904113529 78 123 7.8 7.8 0.00 0.00 0.00 89 1013.7
20260904113029 78 125 6.1 7.0 0.00 0.00 0.00 88 1013.7
20260904111959 78 138 5.2 7.8 0.00 0.00 0.00 88 1013.5
20260904111459 78 156 7.0 7.8 0.00 0.00 0.00 88 1013.5
20260904110959 79 149 7.0 8.7 0.00 0.00 0.00 87 1013.5
20260904110458 79 145 6.1 8.7 0.00 0.00 0.00 87 1013.6
20260904105958 79 145 6.1 9.6 0.00 0.00 0.00 87 1013.6
20260904105459 79 139 8.7 9.6 0.00 0.00 0.00 87 1013.7
20260904104958 79 134 7.0 9.6 0.00 0.00 0.00 86 1013.7
20260904104458 79 145 9.6 9.6 0.00 0.00 0.00 86 1013.6
20260904103458 79 160 6.1 9.6 0.00 0.00 0.00 86 1013.5
20260904102959 79 153 7.0 9.6 0.00 0.00 0.00 86 1013.4
20260904102459 79 162 8.7 9.6 0.00 0.00 0.00 86 1013.4
20260904101958 79 150 7.0 9.6 0.00 0.00 0.00 86 1013.4
20260904101459 79 160 8.7 9.6 0.00 0.00 0.00 86 1013.4
20260904100958 79 156 6.1 9.6 0.00 0.00 0.00 86 1013.4
20260904100458 79 159 7.8 9.6 0.00 0.00 0.00 85 1013.4
20260904100028 79 154 7.0 8.7 0.00 0.00 0.00 85 1013.4
20260904095459 79 148 6.1 9.6 0.00 0.00 0.00 85 1013.5
20260904094958 79 152 6.1 9.6 0.00 0.00 0.00 85 1013.4
20260904093958 79 131 6.1 10.4 0.00 0.00 0.00 84 1013.4
20260904093529 79 131 6.1 7.8 0.00 0.00 0.00 84 1013.4
20260904092958 80 131 7.0 9.6 0.00 0.00 0.00 83 1013.3
20260904092458 80 156 5.2 9.6 0.00 0.00 0.00 83 1013.3
20260904091958 80 192 6.1 9.6 0.00 0.00 0.00 83 1013.2
20260904091458 80 170 4.3 9.6 0.00 0.00 0.00 83 1013.2
20260904090958 80 163 7.8 10.4 0.00 0.00 0.00 83 1013.2
20260904090458 80 172 8.7 10.4 0.00 0.00 0.00 83 1013.2
20260904085958 80 158 4.3 9.6 0.00 0.00 0.00 83 1013.2
20260904085458 80 158 7.0 10.4 0.00 0.00 0.00 83 1013.2
20260904084958 80 165 6.1 10.4 0.00 0.00 0.00 82 1013.2
20260904084458 79 177 7.0 9.6 0.00 0.00 0.00 82 1013.2
20260904083957 80 187 5.2 9.6 0.00 0.00 0.00 82 1013.2
20260904082957 80 144 6.1 9.6 0.00 0.00 0.00 81 1013.2
20260904082457 80 151 6.1 9.6 0.00 0.00 0.00 81 1013.2
20260904081958 80 149 6.1 8.7 0.00 0.00 0.00 81 1013.2
20260904081457 80 158 7.0 8.7 0.00 0.00 0.00 81 1013.2
20260904080958 80 156 4.3 8.7 0.00 0.00 0.00 81 1013.2
20260904080457 80 160 6.1 8.7 0.00 0.00 0.00 80 1013.2
20260904080027 80 166 7.0 8.7 0.00 0.00 0.00 80 1013.2
20260904075528 80 165 6.1 7.8 0.00 0.00 0.00 80 1013.2
20260904075027 80 178 5.2 8.7 0.00 0.00 0.00 80 1013.2
20260904074528 80 197 5.2 8.7 0.00 0.00 0.00 80 1013.2